Location: Oakley
(37.9974°N, 121.7125°W)
Time: 18:48:37
(UTC+00:00)

Cosmos 1300 Rocket - Pass Details

Date: 13 February 2026
Orbit: 595 x 619 km, 82.5° (Epoch: 10 March)

Event Time Altitude Azimuth Distance (km) Brightness Sun altitude
Rises 14:16:05 0° 205° (SSW) 2,871 6.8 -9.1°
Reaches altitude 10° 14:18:26 10° 214° (SW) 1,973 5.9 -8.6°
Maximum altitude 14:22:29 37° 282° (WNW) 972 4.1 -7.8°
Drops below altitude 10° 14:26:35 10° 350° (N) 1,991 6.0 -7.0°
Sets 14:28:58 0° 359° (N) 2,902 6.9 -6.6°
